THY8RW LTAN-LTFM

Flight info

Callsign THY8RW
Flight time 0h 55m
Altitude 36000
Route HISAR UL620 OSVEL UT337 KFK UM855 SISPI
Aircraft A320/M-SDE3FGHIRWY/LB1

Departure

Time 2026-04-26 12:08
Airport Konya Airport (LTAN)

Arrival

Time 2026-04-26 13:04
Airport İstanbul Airport (LTFM)
Time Latitude Longitude Altitude Speed Heading
2026-04-26 11:29 37.98573 32.57566 3392 ft 0 kts 105°
2026-04-26 11:59 37.98576 32.57554 3391 ft 4 kts 98°
2026-04-26 11:59 37.98575 32.57523 3391 ft 4 kts 64°
2026-04-26 12:00 37.98560 32.57500 3391 ft 3 kts 19°
2026-04-26 12:00 37.98556 32.57498 3391 ft 0 kts 15°
2026-04-26 12:03 37.98562 32.57500 3391 ft 2 kts 15°
2026-04-26 12:03 37.98576 32.57505 3391 ft 3 kts 15°
2026-04-26 12:03 37.98601 32.57513 3391 ft 4 kts 15°
2026-04-26 12:03 37.98634 32.57525 3391 ft 6 kts 15°
2026-04-26 12:04 37.98676 32.57539 3391 ft 7 kts 15°
2026-04-26 12:04 37.98727 32.57556 3391 ft 8 kts 14°
2026-04-26 12:04 37.98789 32.57573 3391 ft 10 kts 13°
2026-04-26 12:04 37.98860 32.57591 3391 ft 11 kts
2026-04-26 12:05 37.98932 32.57548 3391 ft 12 kts 319°
2026-04-26 12:05 37.98992 32.57459 3391 ft 14 kts 310°
2026-04-26 12:05 37.99057 32.57360 3391 ft 15 kts 310°
2026-04-26 12:05 37.99130 32.57250 3391 ft 17 kts 310°
2026-04-26 12:06 37.99210 32.57134 3391 ft 18 kts 311°
2026-04-26 12:06 37.99268 32.57014 3391 ft 15 kts 290°
2026-04-26 12:06 37.99299 32.56884 3390 ft 16 kts 284°
2026-04-26 12:06 37.99323 32.56778 3389 ft 9 kts 287°
2026-04-26 12:07 37.99300 32.56724 3390 ft 8 kts 198°
2026-04-26 12:07 37.99224 32.56695 3390 ft 24 kts 198°
2026-04-26 12:07 37.98830 32.56546 3390 ft 91 kts 196°
2026-04-26 12:07 37.98042 32.56249 3393 ft 142 kts 197°
2026-04-26 12:08 37.96954 32.55834 3446 ft 178 kts 197°
2026-04-26 12:08 37.95789 32.55429 4064 ft 173 kts 194°
2026-04-26 12:08 37.94615 32.55069 4670 ft 173 kts 194°
2026-04-26 12:08 37.93436 32.54717 5212 ft 178 kts 193°
2026-04-26 12:09 37.92165 32.54333 5432 ft 199 kts 194°
2026-04-26 12:09 37.90749 32.53903 5677 ft 220 kts 194°
2026-04-26 12:09 37.89228 32.53446 6241 ft 227 kts 194°
2026-04-26 12:09 37.87685 32.52978 6976 ft 229 kts 194°
2026-04-26 12:10 37.86144 32.52441 7715 ft 231 kts 206°
2026-04-26 12:10 37.84998 32.51121 8373 ft 231 kts 244°
2026-04-26 12:10 37.84760 32.49129 8994 ft 237 kts 283°
2026-04-26 12:10 37.85550 32.47383 9579 ft 242 kts 320°
2026-04-26 12:11 37.87002 32.46582 10163 ft 246 kts 356°
2026-04-26 12:11 37.88697 32.47058 10808 ft 250 kts 27°
2026-04-26 12:11 37.90152 32.48152 11447 ft 252 kts 34°
2026-04-26 12:11 37.91531 32.49375 12066 ft 255 kts 36°
2026-04-26 12:12 37.93021 32.50735 12725 ft 258 kts 35°
2026-04-26 12:12 37.94479 32.52032 13357 ft 260 kts 32°
2026-04-26 12:12 37.96165 32.52879 13966 ft 259 kts
2026-04-26 12:12 37.97347 32.52869 14364 ft 258 kts 347°
2026-04-26 12:13 37.99489 32.51511 14918 ft 274 kts 313°
2026-04-26 12:13 38.00515 32.49481 15085 ft 283 kts 285°
2026-04-26 12:13 38.00875 32.46977 15215 ft 303 kts 276°
2026-04-26 12:13 38.01179 32.44203 15343 ft 324 kts 276°
2026-04-26 12:14 38.01393 32.42291 15431 ft 337 kts 277°
2026-04-26 12:14 38.01740 32.39262 15569 ft 356 kts 277°
2026-04-26 12:14 38.02109 32.36110 15965 ft 365 kts 277°
2026-04-26 12:14 38.02490 32.32912 16493 ft 369 kts 277°
2026-04-26 12:15 38.02872 32.29687 17026 ft 370 kts 278°
2026-04-26 12:15 38.03263 32.26443 17496 ft 375 kts 277°
2026-04-26 12:15 38.03653 32.23150 18028 ft 380 kts 277°
2026-04-26 12:15 38.04040 32.19817 18602 ft 384 kts 277°
2026-04-26 12:16 38.04433 32.16445 19170 ft 387 kts 277°
2026-04-26 12:16 38.04830 32.13058 19731 ft 391 kts 277°
2026-04-26 12:16 38.05234 32.09630 20308 ft 395 kts 277°
2026-04-26 12:16 38.05640 32.06180 20846 ft 398 kts 277°
2026-04-26 12:17 38.06047 32.02702 21343 ft 399 kts 277°
2026-04-26 12:17 38.06458 31.99200 21784 ft 403 kts 277°
2026-04-26 12:17 38.06866 31.95668 22266 ft 406 kts 277°
2026-04-26 12:17 38.07270 31.92103 22736 ft 409 kts 277°
2026-04-26 12:18 38.07682 31.88468 23203 ft 412 kts 277°
2026-04-26 12:18 38.08091 31.84857 23642 ft 415 kts 277°
2026-04-26 12:18 38.08506 31.81222 24059 ft 417 kts 277°
2026-04-26 12:18 38.08922 31.77567 24469 ft 420 kts 277°
2026-04-26 12:19 38.09338 31.73890 24879 ft 422 kts 277°
2026-04-26 12:19 38.09753 31.70195 25282 ft 424 kts 277°
2026-04-26 12:19 38.10168 31.66482 25673 ft 425 kts 277°
2026-04-26 12:19 38.10583 31.62754 26051 ft 427 kts 277°
2026-04-26 12:20 38.11062 31.59026 26414 ft 430 kts 282°
2026-04-26 12:20 38.11978 31.55397 26773 ft 433 kts 292°
2026-04-26 12:20 38.13372 31.52007 27131 ft 436 kts 302°
2026-04-26 12:20 38.15219 31.48928 27479 ft 439 kts 311°
2026-04-26 12:21 38.17263 31.46044 27837 ft 441 kts 311°
2026-04-26 12:21 38.19314 31.43139 28188 ft 443 kts 311°
2026-04-26 12:21 38.21377 31.40206 28534 ft 445 kts 310°
2026-04-26 12:21 38.23442 31.37262 28874 ft 446 kts 311°
2026-04-26 12:22 38.25512 31.34314 29183 ft 448 kts 311°
2026-04-26 12:22 38.27594 31.31353 29517 ft 449 kts 311°
2026-04-26 12:22 38.29678 31.28390 29965 ft 448 kts 311°
2026-04-26 12:22 38.31743 31.25446 30410 ft 446 kts 311°
2026-04-26 12:23 38.33806 31.22499 30834 ft 445 kts 311°
2026-04-26 12:23 38.35866 31.19553 31258 ft 444 kts 311°
2026-04-26 12:23 38.37915 31.16618 31650 ft 443 kts 311°
2026-04-26 12:23 38.39963 31.13680 32046 ft 443 kts 311°
2026-04-26 12:24 38.42002 31.10755 32443 ft 442 kts 311°
2026-04-26 12:24 38.44044 31.07825 32865 ft 440 kts 311°
2026-04-26 12:24 38.46076 31.04909 33298 ft 438 kts 312°
2026-04-26 12:25 38.50488 30.99546 34047 ft 435 kts 329°
2026-04-26 12:25 38.53028 30.97538 34365 ft 436 kts 329°
2026-04-26 12:25 38.55643 30.95494 34689 ft 435 kts 329°
2026-04-26 12:25 38.58235 30.93479 34993 ft 435 kts 329°
2026-04-26 12:26 38.60817 30.91472 35288 ft 435 kts 329°
2026-04-26 12:26 38.63406 30.89456 35564 ft 435 kts 329°
2026-04-26 12:26 38.66025 30.87537 35837 ft 434 kts 336°
2026-04-26 12:26 38.68819 30.86051 35994 ft 436 kts 338°
2026-04-26 12:27 38.74491 30.83098 36009 ft 443 kts 338°
2026-04-26 12:27 38.80206 30.80120 36006 ft 440 kts 338°
2026-04-26 12:28 38.85894 30.77153 35986 ft 443 kts 338°
2026-04-26 12:28 38.91596 30.74166 35985 ft 442 kts 338°
2026-04-26 12:29 38.97299 30.71176 35985 ft 442 kts 338°
2026-04-26 12:30 39.05851 30.66696 35997 ft 442 kts 338°
2026-04-26 12:30 39.11550 30.63700 36008 ft 442 kts 338°
2026-04-26 12:31 39.20088 30.59191 36016 ft 442 kts 338°
2026-04-26 12:31 39.25810 30.56168 36018 ft 441 kts 338°
2026-04-26 12:32 39.31486 30.53166 36012 ft 440 kts 338°
2026-04-26 12:33 39.39995 30.48642 36016 ft 441 kts 338°
2026-04-26 12:33 39.45662 30.45631 36019 ft 440 kts 338°
2026-04-26 12:34 39.51314 30.42621 36020 ft 439 kts 338°
2026-04-26 12:34 39.56956 30.39614 36022 ft 438 kts 338°
2026-04-26 12:35 39.62594 30.36603 36021 ft 438 kts 338°
2026-04-26 12:35 39.68219 30.33586 36021 ft 437 kts 338°
2026-04-26 12:36 39.73841 30.30568 36020 ft 436 kts 338°
2026-04-26 12:36 39.79319 30.27195 36017 ft 436 kts 332°
2026-04-26 12:37 39.84634 30.23400 36016 ft 436 kts 332°
2026-04-26 12:37 39.89951 30.19532 36016 ft 434 kts 332°
2026-04-26 12:38 39.95227 30.15711 36016 ft 434 kts 332°
2026-04-26 12:38 40.00516 30.11895 35926 ft 435 kts 332°
2026-04-26 12:38 40.03168 30.09988 35666 ft 434 kts 332°
2026-04-26 12:39 40.05808 30.08089 35417 ft 434 kts 332°
2026-04-26 12:39 40.08452 30.06180 35167 ft 434 kts 332°
2026-04-26 12:39 40.11090 30.04269 34918 ft 434 kts 332°
2026-04-26 12:39 40.13734 30.02351 34669 ft 434 kts 332°
2026-04-26 12:40 40.16374 30.00432 34417 ft 435 kts 332°
2026-04-26 12:40 40.19023 29.98510 34169 ft 435 kts 332°
2026-04-26 12:40 40.21664 29.96594 33921 ft 435 kts 332°
2026-04-26 12:40 40.24316 29.94666 33670 ft 435 kts 332°
2026-04-26 12:41 40.26954 29.92741 33421 ft 436 kts 332°
2026-04-26 12:41 40.29604 29.90806 33169 ft 436 kts 332°
2026-04-26 12:41 40.32263 29.88868 32919 ft 438 kts 332°
2026-04-26 12:41 40.34934 29.86919 32668 ft 439 kts 332°
2026-04-26 12:42 40.37628 29.84945 32419 ft 439 kts 332°
2026-04-26 12:42 40.40300 29.82988 32164 ft 440 kts 332°
2026-04-26 12:42 40.42977 29.81031 31907 ft 440 kts 332°
2026-04-26 12:42 40.45658 29.79074 31651 ft 441 kts 332°
2026-04-26 12:43 40.48342 29.77109 31409 ft 442 kts 332°
2026-04-26 12:43 40.51017 29.75146 30425 ft 439 kts 332°
2026-04-26 12:43 40.53717 29.73164 28783 ft 447 kts 332°
2026-04-26 12:43 40.56397 29.71192 27815 ft 437 kts 331°
2026-04-26 12:44 40.59024 29.69256 26758 ft 430 kts 331°
2026-04-26 12:44 40.61619 29.67346 25685 ft 424 kts 331°
2026-04-26 12:44 40.64178 29.65462 24714 ft 417 kts 330°
2026-04-26 12:44 40.66646 29.63645 24360 ft 398 kts 330°
2026-04-26 12:45 40.69062 29.61861 23784 ft 398 kts 330°
2026-04-26 12:45 40.71472 29.60080 23210 ft 398 kts 330°
2026-04-26 12:45 40.73079 29.58893 22824 ft 397 kts 330°
2026-04-26 12:45 40.75488 29.57106 22255 ft 397 kts 330°
2026-04-26 12:46 40.77891 29.55320 21693 ft 396 kts 330°
2026-04-26 12:46 40.80296 29.53538 21157 ft 395 kts 330°
2026-04-26 12:46 40.82719 29.51740 20627 ft 394 kts 330°
2026-04-26 12:46 40.85097 29.49972 20112 ft 392 kts 329°
2026-04-26 12:47 40.87476 29.48202 19614 ft 390 kts 329°
2026-04-26 12:47 40.89805 29.46471 19124 ft 388 kts 329°
2026-04-26 12:47 40.92174 29.44706 18609 ft 385 kts 329°
2026-04-26 12:47 40.94501 29.42971 18103 ft 382 kts 329°
2026-04-26 12:48 40.96809 29.41252 17583 ft 379 kts 329°
2026-04-26 12:48 40.99102 29.39542 17057 ft 377 kts 329°
2026-04-26 12:48 41.01377 29.37845 16513 ft 374 kts 329°
2026-04-26 12:48 41.03639 29.36157 15968 ft 372 kts 329°
2026-04-26 12:49 41.05885 29.34477 15420 ft 369 kts 329°
2026-04-26 12:49 41.08110 29.32809 14853 ft 366 kts 329°
2026-04-26 12:49 41.10322 29.31151 14310 ft 364 kts 329°
2026-04-26 12:49 41.12519 29.29507 13755 ft 361 kts 328°
2026-04-26 12:50 41.14692 29.27880 13223 ft 358 kts 328°
2026-04-26 12:50 41.16858 29.26260 12662 ft 355 kts 328°
2026-04-26 12:50 41.18997 29.24657 12107 ft 353 kts 328°
2026-04-26 12:50 41.21123 29.23053 11557 ft 351 kts 328°
2026-04-26 12:51 41.23231 29.21458 11018 ft 347 kts 328°
2026-04-26 12:51 41.25315 29.19884 10672 ft 339 kts 328°
2026-04-26 12:51 41.27307 29.18383 10537 ft 317 kts 328°
2026-04-26 12:51 41.29105 29.17030 10359 ft 296 kts 328°
2026-04-26 12:52 41.30874 29.15699 9911 ft 286 kts 328°
2026-04-26 12:52 41.32582 29.14407 9788 ft 285 kts 328°
2026-04-26 12:52 41.34299 29.13105 9664 ft 284 kts 328°
2026-04-26 12:52 41.36018 29.11801 9537 ft 284 kts 328°
2026-04-26 12:53 41.37735 29.10506 9402 ft 284 kts 328°
2026-04-26 12:53 41.39480 29.09186 9044 ft 284 kts 328°
2026-04-26 12:53 41.41194 29.07886 8531 ft 282 kts 328°
2026-04-26 12:53 41.42885 29.06596 8061 ft 277 kts 328°
2026-04-26 12:54 41.44530 29.05345 7622 ft 275 kts 328°
2026-04-26 12:54 41.46134 29.04126 7185 ft 273 kts 328°
2026-04-26 12:54 41.47815 29.02851 6780 ft 272 kts 328°
2026-04-26 12:54 41.49455 29.01605 6365 ft 271 kts 328°
2026-04-26 12:55 41.51064 29.00383 5864 ft 267 kts 328°
2026-04-26 12:55 41.52649 28.99184 5415 ft 265 kts 328°
2026-04-26 12:55 41.54232 28.97984 5075 ft 255 kts 328°
2026-04-26 12:55 41.55728 28.96846 4945 ft 246 kts 328°
2026-04-26 12:56 41.57174 28.95698 4819 ft 237 kts 321°
2026-04-26 12:56 41.58323 28.94191 4697 ft 230 kts 304°
2026-04-26 12:56 41.59114 28.92325 4577 ft 242 kts 289°
2026-04-26 12:56 41.59292 28.90141 4446 ft 235 kts 258°
2026-04-26 12:57 41.58781 28.88116 4325 ft 225 kts 248°
2026-04-26 12:57 41.58166 28.86238 4212 ft 231 kts 246°
2026-04-26 12:57 41.57494 28.84258 4097 ft 235 kts 246°
2026-04-26 12:58 41.56115 28.80268 4010 ft 238 kts 240°
2026-04-26 12:58 41.55177 28.78447 3941 ft 238 kts 236°
2026-04-26 12:58 41.54154 28.76726 3633 ft 237 kts 223°
2026-04-26 12:58 41.52760 28.75567 3315 ft 240 kts 201°
2026-04-26 12:59 41.51126 28.75196 3065 ft 238 kts 181°
2026-04-26 12:59 41.49489 28.75237 3006 ft 233 kts 181°
2026-04-26 12:59 41.47888 28.75262 3008 ft 221 kts 181°
2026-04-26 12:59 41.46362 28.75289 3010 ft 219 kts 181°
2026-04-26 13:00 41.44840 28.75317 3013 ft 218 kts 181°
2026-04-26 13:00 41.43367 28.75347 2964 ft 208 kts 180°
2026-04-26 13:00 41.41961 28.75370 2757 ft 202 kts 181°
2026-04-26 13:00 41.40548 28.75397 2491 ft 200 kts 181°
2026-04-26 13:01 41.39179 28.75423 2234 ft 199 kts 182°
2026-04-26 13:01 41.37786 28.75452 1987 ft 193 kts 182°
2026-04-26 13:01 41.36493 28.75477 1726 ft 179 kts 182°
2026-04-26 13:01 41.35310 28.75502 1508 ft 158 kts 182°
2026-04-26 13:02 41.34270 28.75522 1295 ft 143 kts 183°
2026-04-26 13:02 41.33296 28.75539 1107 ft 138 kts 183°
2026-04-26 13:02 41.32343 28.75557 921 ft 137 kts 183°
2026-04-26 13:02 41.31398 28.75577 738 ft 136 kts 183°
2026-04-26 13:03 41.30454 28.75599 562 ft 136 kts 181°
2026-04-26 13:03 41.29509 28.75625 384 ft 136 kts 182°
2026-04-26 13:03 41.28575 28.75639 250 ft 129 kts 181°
2026-04-26 13:03 41.27836 28.75644 277 ft 81 kts 180°
2026-04-26 13:04 41.27439 28.75649 292 ft 40 kts 180°
2026-04-26 13:04 41.27229 28.75642 296 ft 23 kts 191°
2026-04-26 13:04 41.27146 28.75606 301 ft 6 kts 202°
2026-04-26 13:04 41.27120 28.75591 303 ft 3 kts 204°
2026-04-26 13:05 41.27102 28.75579 304 ft 3 kts 207°
2026-04-26 13:05 41.27082 28.75565 304 ft 3 kts 208°
2026-04-26 13:05 41.27058 28.75549 305 ft 5 kts 209°
2026-04-26 13:05 41.27039 28.75534 305 ft 0 kts 210°
2026-04-26 13:06 41.27038 28.75534 305 ft 0 kts 210°
2026-04-26 13:06 41.27024 28.75522 306 ft 4 kts 210°
2026-04-26 13:06 41.26995 28.75500 306 ft 5 kts 210°
2026-04-26 13:06 41.26957 28.75472 306 ft 7 kts 210°
2026-04-26 13:07 41.26912 28.75432 308 ft 9 kts 223°
2026-04-26 13:07 41.26891 28.75351 308 ft 11 kts 270°
2026-04-26 13:07 41.26890 28.75249 308 ft 9 kts 270°
2026-04-26 13:07 41.26890 28.75231 308 ft 1 kts 269°
2026-04-26 13:08 41.26890 28.75210 308 ft 3 kts 269°
2026-04-26 13:08 41.26889 28.75197 309 ft 0 kts 263°
2026-04-26 13:08 41.26886 28.75188 309 ft 3 kts 253°
2026-04-26 13:08 41.26876 28.75166 312 ft 2 kts 231°
2026-04-26 13:09 41.26837 28.75146 313 ft 10 kts 184°
2026-04-26 13:09 41.26762 28.75146 313 ft 12 kts 179°
2026-04-26 13:09 41.26667 28.75146 313 ft 15 kts 182°
2026-04-26 13:09 41.26560 28.75110 313 ft 17 kts 198°
2026-04-26 13:10 41.26438 28.75059 313 ft 19 kts 197°
2026-04-26 13:10 41.26325 28.75014 311 ft 16 kts 197°
2026-04-26 13:10 41.26247 28.74979 313 ft 8 kts 216°
2026-04-26 13:10 41.26221 28.74908 312 ft 9 kts 252°
2026-04-26 13:11 41.26207 28.74852 313 ft 5 kts 251°
2026-04-26 13:11 41.26201 28.74829 313 ft 0 kts 251°